Погода в Чурапче

Погода в Чурапче : погода сейчас, прогноз погоды и архив. Всё, что Вы хотите узнать о погоде в Чурапче!

Хотите узнать прогноз погоды в Чурапче? Тогда Вам сюда: Погода в Чурапче

Поиск расширенной информации на нашем сайте:

Другие новости

Новости СМИ2

Главная страница сайта

Новости сайта

03.07.2017

Напоминаем, что на нашем специализированном сайте Метеоцентр.Азия вы можете получить высокодетализированные автоматические прогнозы погоды по пунктам России, СНГ и мира в авиационном формате (включающие направление и скорость ветра, видимость, явления погоды, количество и форму облачности, нижнюю и верхнюю границу облачности).


Погода в Чурапче - сегодня

Время (UTC), дата Ветер
(°,м/с) 
Видим.   Явления Облачность Т
(°С)
Тd
(°С)
f(%) Тe
(°С)
Pmin
(гПа)
dP
(гПа)
Po
(мм)
O2
(г/м3)
Тmin Tmax R s Состояние
почвы
00 19.10.18 190 (Ю) 20000 м    3/0 средняя 
[Ac trans]
-10.1 -11.4 90 -10  1017.8  -0.4  746  313  -12.2      равномерный
мокрый или
старый снег
100% 
03 19.10.18 120 (ЮВ) 20000 м    9/9 600 м 
[Sc]
-5.5 -8.1 82 -5  1016.3  -1  745  307           
06 19.10.18 060 (СВ) 20000 м    9/4 600 м средняя 
[Sc|Ac trans]
-3.1 -6.2 79 -3  1015  -1.1  745  304           
09 19.10.18 090 (В) 20000 м    9/9 600 м 
[Sc]
-4.3 -6.2 87 -4  1014.5  -0.6  744  305           
15 19.10.18 080 (В) 4000 м  слаб. снег  10/10 600 м 
[Sc]
-4.9 -6.2 91 -4  1014.4  744  306           
18 19.10.18 060 (СВ) 4000 м  слаб. снег  10/10 600 м 
[Sc]
-5.8 -6.9 92 -5  1014.8  0.3  744  307           
21 19.10.18 040 (СВ) 20000 м  {снег}  10/10 600 м 
[Sc]
-5.5 -6.2 95 -5  1016  1.2  745  307           
00 20.10.18 тихо ()   20000 м  {снег}  9/9 600 м 
[Sc]
-6.5 -7.7 91 -7  1017.2  1.1  746  309  -6.6    0.6  равномерный
мокрый или
старый снег
100% 
03 20.10.18 350 (С) 20000 м    10/10 600 м 
[Sc]
-3.9 -6.5 82 -3  1017.9  0.9  747  306           
06 20.10.18 330 (СЗ) 20000 м    10/10 600 м 
[Sc]
-3.7 -6.6 80 -3  1018.8  0.9  747  306           
09 20.10.18 340 (С) 20000 м    10/10 600 м 
[Sc]
-4.4 -6.3 87 -4  1020.1  1.2  748  307           
12 20.10.18 тихо ()   20000 м    10/10 600 м 
[Sc]
-4.6 -6.2 89 -5  1020.8  0.6  749  307    -3.2       
15 20.10.18 090 (В) 4000 м  слаб. снег  10/10 600 м 
[Sc]
-4.9 -6.2 91 -4  1021.1  0.3  749  308           
18 20.10.18 тихо ()   4000 м  слаб. снег  10/10 600 м 
[Sc]
-5.3 -6.3 93 -5  1021.3  0.2  749  308           
21 20.10.18 300 (СЗ) 20000 м  {снег}  10/10 600 м 
[Sc]
-4.8 -6.1 91 -4  1021.2  -0.1  749  308           
03 21.10.18 160 (Ю) 20000 м    9/9 600 м 
[Sc]
-3.5 -6 83 -3  1021.6  -0.1  749  306           
06 21.10.18 080 (В) 20000 м    9/9 600 м 
[Sc]
-3.1 -7 74 -3  1021  -0.5  749  306           
09 21.10.18 070 (В) 20000 м    9/9 600 м 
[Sc]
-4.6 -8.1 76 -4  1021.4  0.2  749  308           
12 21.10.18 060 (СВ) 20000 м    9/9 600 м 
[Sc]
-5.1 -7.6 83 -5  1021.3  -0.1  749  308    -2.7       
15 21.10.18 060 (СВ) 20000 м    9/9 600 м 
[Sc]
-5.7 -7.9 84 -5  1021.1  -0.3  749  309           
18 21.10.18 070 (В) 20000 м    9/9 600 м 
[Sc]
-6.3 -8.3 86 -6  1020.8  -0.3  749  310           
21 21.10.18 070 (В) 20000 м    9/9 600 м 
[Sc]
-6.6 -8.2 88 -6  1020.8  749  310           
00 22.10.18 070 (В) 10 км  слаб. снег  9/9 600 м 
[Sc]
-6.2 -7.7 89 -6  1020  -2  748  309  -6.7    0.0  равномерный
мокрый или
старый снег
100% 
03 22.10.18 060 (СВ) 20000 м  {снег}  9/8 600 м средняя 
[Sc|Ac trans]
-3.9 -6.5 82 -3  1020.3  -0.2  748  307           
06 22.10.18 020 (С) 20000 м  {снег, ливн. осадки}  9/8 600 м средняя 
[Sc diur, vesp|Ac trans]
-2.1 -8 64 -2  1019.7  -0.4  748  305           
Время (UTC), дата Ветер
(°,м/с) 
Видим.   Явления Облачность Т
(°С)
Тd
(°С)
f(%) Тe
(°С)
Pmin
(гПа)
dP
(гПа)
Po
(мм)
O2
(г/м3)
Тmin Tmax R s Состояние
почвы

Для получения пояснительной информации подведите курсор к названию столбца.

ПОГОДА в Чурапче - архив

Всё, что Вы хотите узнать о погоде в Чурапче - удобно и подробно!

Выберите нужную дату (начиная с 1 января 2015* года) и нажмите кнопку "Найти".
Будут отображены архивные сводки погоды по пункту Чурапча, начиная с указанной даты.


Отображать данные в формате CSV (для использования в таблицах Excel)


Внимание! Наш архив погоды предназначен исключительно для личного некоммерческого использования в познавательных целях. Если Вам необходимы официальные справки о состоянии погоды (для производственных, юридических, коммерческих и т.п. целей), обращайтесь в органы Росгидромета.

*Примечание: данная дата относится к архиву по метеостанциям СССР (Россия, СНГ, Балтия).
Архив по метеостанциям Зарубежной Европы и Азии (кроме Китая) хранится 10 дней, по другим регионам земного шара (Китай, Африка, Америка, Австралия, Океания) - 1 день.

Чурапча - район местоположения метеостанции


Название, широта, долгота, высота метеостанции:
Чурапча 62°ш. 132.6°д. 186 м над ур. моря [Российская Федерация]

Дополнительная информация

В oтличие oт бoльшинства пoгoдных сайтoв мы публикуем пoдрoбную метеoинфoрмацию в детальнoм прoфессиoнальнoм фoрмате.

Характеристики температуры и влажнoсти вoздуха измеряются на высoте 2 м в тени вдали oт зданий и деревьев.
Скoрoсть ветра измеряется на высoте 10 м (на урoвне рoста челoвека скoрoсть ветра ниже в 1.5-2 раза). Если метеoстанция нахoдится в гoрoде или в лесу, тo скoрoсть ветра занижена на 2-4 м/с пo сравнению с oткрытым местoм. Скoрoсть ветра над акватoриями крупных рек и oзёр, а также на вершинах хoлмoв на 2-5 м/с выше, чем в oбычных услoвиях.
Атмoсфернoе давление в разных тoчках местнoсти мoжет значительнo oтличаться oт давления на метеoстанции, в зависимoсти oт услoвий рельефа (при пoдъёме на 10 м давление пoнижается примернo на 1 мм рт.ст.).